Time,TemperatureF,DewpointF,PressureIn,WindDirection,WindDirectionDegrees,WindSpeedMPH,WindSpeedGustMPH,Humidity,HourlyPrecipIn,Conditions,Clouds,dailyrainin,SoftwareType,DateUTC
2016-08-28 00:02:00,75.6,73.8,29.99,West,270,0.0,0.0,94,0.00,RA,,0.00,WeatherDisplay:10.37,2016-08-28 05:02:00,
2016-08-28 00:07:00,75.6,73.8,29.99,West,270,0.0,0.0,94,0.00,RA,,0.00,WeatherDisplay:10.37,2016-08-28 05:07:00,
2016-08-28 00:12:00,75.6,73.8,29.99,West,270,0.0,0.0,94,0.00,CLR,,0.00,WeatherDisplay:10.37,2016-08-28 05:12:00,
2016-08-28 00:17:00,75.6,73.8,29.99,West,270,0.0,0.0,94,0.00,CLR,,0.00,WeatherDisplay:10.37,2016-08-28 05:17:00,
2016-08-28 00:22:00,75.6,73.8,29.99,WNW,292,0.0,0.0,94,0.00,CLR,,0.00,WeatherDisplay:10.37,2016-08-28 05:22:00,
2016-08-28 00:27:00,75.4,73.6,29.98,NNW,338,0.0,0.0,94,0.00,CLR,,0.00,WeatherDisplay:10.37,2016-08-28 05:27:00,
2016-08-28 00:32:00,75.4,73.6,29.98,NNW,338,0.0,0.0,94,0.00,CLR,,0.00,WeatherDisplay:10.37,2016-08-28 05:32:00,
2016-08-28 00:37:00,75.4,73.6,29.99,NW,315,0.0,0.0,94,0.00,CLR,,0.00,WeatherDisplay:10.37,2016-08-28 05:37:00,
2016-08-28 00:42:00,75.4,73.6,29.99,West,270,0.0,0.0,94,0.00,CLR,,0.00,WeatherDisplay:10.37,2016-08-28 05:42:00,
2016-08-28 00:47:00,75.4,73.6,29.99,West,270,0.0,0.0,94,0.00,CLR,,0.00,WeatherDisplay:10.37,2016-08-28 05:47:00,
2016-08-28 00:52:00,75.2,73.4,29.98,WNW,292,0.0,0.0,94,0.00,CLR,,0.00,WeatherDisplay:10.37,2016-08-28 05:52:00,
2016-08-28 00:57:00,75.2,73.4,29.98,WNW,292,0.0,0.0,94,0.00,CLR,,0.00,WeatherDisplay:10.37,2016-08-28 05:57:00,
2016-08-28 01:02:00,75.0,73.2,29.98,West,270,0.0,0.0,94,0.00,CLR,,0.00,WeatherDisplay:10.37,2016-08-28 06:02:00,
2016-08-28 01:07:00,75.0,73.2,29.98,West,270,0.0,0.0,94,0.00,CLR,,0.00,WeatherDisplay:10.37,2016-08-28 06:07:00,
2016-08-28 01:12:00,74.8,73.0,29.98,West,270,0.0,0.0,94,0.00,CLR,,0.00,WeatherDisplay:10.37,2016-08-28 06:12:00,
2016-08-28 01:17:00,74.7,72.9,29.98,West,270,0.0,0.0,94,0.00,CLR,,0.00,WeatherDisplay:10.37,2016-08-28 06:17:00,
2016-08-28 01:22:00,74.7,72.9,29.98,West,270,0.0,0.0,94,0.00,CLR,,0.00,WeatherDisplay:10.37,2016-08-28 06:22:00,
2016-08-28 01:27:00,74.5,72.7,29.98,WNW,292,0.0,0.0,94,0.00,CLR,,0.00,WeatherDisplay:10.37,2016-08-28 06:27:00,
2016-08-28 01:32:00,74.3,72.5,29.98,NW,315,0.0,0.0,94,0.00,CLR,,0.00,WeatherDisplay:10.37,2016-08-28 06:32:00,
2016-08-28 01:37:00,74.3,72.5,29.97,ENE,68,0.0,0.0,94,0.00,CLR,,0.00,WeatherDisplay:10.37,2016-08-28 06:37:00,
2016-08-28 01:42:00,74.3,72.5,29.97,NE,45,0.0,0.0,94,0.00,CLR,,0.00,WeatherDisplay:10.37,2016-08-28 06:42:00,
2016-08-28 01:47:00,74.1,72.3,29.97,NW,315,2.7,2.7,94,0.00,CLR,,0.00,WeatherDisplay:10.37,2016-08-28 06:47:00,
2016-08-28 01:52:00,74.1,72.3,29.97,West,270,1.4,1.4,94,0.00,CLR,,0.00,WeatherDisplay:10.37,2016-08-28 06:52:00,
2016-08-28 01:57:00,74.1,72.3,29.97,NW,315,0.0,0.0,94,0.00,CLR,,0.00,WeatherDisplay:10.37,2016-08-28 06:57:00,
2016-08-28 02:02:00,74.1,72.3,29.97,WSW,248,0.0,0.0,94,0.00,CLR,,0.00,WeatherDisplay:10.37,2016-08-28 07:02:00,
2016-08-28 02:07:00,74.1,72.3,29.97,NNW,338,0.0,0.0,94,0.00,CLR,,0.00,WeatherDisplay:10.37,2016-08-28 07:07:00,
2016-08-28 02:12:00,73.9,72.1,29.96,WNW,292,0.0,0.0,94,0.00,CLR,,0.00,WeatherDisplay:10.37,2016-08-28 07:12:00,
2016-08-28 02:17:00,73.9,72.1,29.96,West,270,0.0,0.0,94,0.00,CLR,,0.00,WeatherDisplay:10.37,2016-08-28 07:17:00,
2016-08-28 02:22:00,73.9,72.1,29.96,WNW,292,0.0,0.0,94,0.00,CLR,,0.00,WeatherDisplay:10.37,2016-08-28 07:22:00,
2016-08-28 02:27:00,73.9,72.1,29.96,West,270,0.0,0.0,94,0.00,CLR,,0.00,WeatherDisplay:10.37,2016-08-28 07:27:00,
2016-08-28 02:32:00,73.9,72.1,29.96,West,270,0.0,0.0,94,0.00,CLR,,0.00,WeatherDisplay:10.37,2016-08-28 07:32:00,
2016-08-28 02:37:00,73.8,72.0,29.96,WSW,248,0.0,0.0,94,0.00,CLR,,0.00,WeatherDisplay:10.37,2016-08-28 07:37:00,
2016-08-28 02:42:00,73.8,72.0,29.96,WNW,292,0.0,0.0,94,0.00,CLR,,0.00,WeatherDisplay:10.37,2016-08-28 07:42:00,
2016-08-28 02:47:00,73.8,72.0,29.96,NNW,338,0.0,0.0,94,0.00,CLR,,0.00,WeatherDisplay:10.37,2016-08-28 07:47:00,
2016-08-28 02:52:00,73.8,72.0,29.96,NE,45,0.0,0.0,94,0.00,CLR,,0.00,WeatherDisplay:10.37,2016-08-28 07:52:00,
2016-08-28 02:57:00,73.8,72.0,29.96,NNW,338,0.0,0.0,94,0.00,CLR,,0.00,WeatherDisplay:10.37,2016-08-28 07:57:00,
2016-08-28 03:02:00,73.8,72.0,29.96,WSW,248,0.0,0.0,94,0.00,CLR,,0.00,WeatherDisplay:10.37,2016-08-28 08:02:00,
2016-08-28 03:07:00,73.8,72.0,29.96,WSW,248,0.0,0.0,94,0.00,CLR,,0.00,WeatherDisplay:10.37,2016-08-28 08:07:00,
2016-08-28 03:12:00,73.9,72.1,29.96,NE,45,0.0,0.0,94,0.00,CLR,,0.00,WeatherDisplay:10.37,2016-08-28 08:12:00,
2016-08-28 03:17:00,73.9,72.1,29.96,ENE,68,0.0,0.0,94,0.00,CLR,,0.00,WeatherDisplay:10.37,2016-08-28 08:17:00,
2016-08-28 03:22:00,73.9,72.1,29.96,NNW,338,1.2,1.2,94,0.00,CLR,,0.00,WeatherDisplay:10.37,2016-08-28 08:22:00,
2016-08-28 03:27:00,73.9,72.1,29.96,NNW,338,2.3,0.0,94,0.00,CLR,,0.00,WeatherDisplay:10.37,2016-08-28 08:27:00,
2016-08-28 03:32:00,73.9,72.1,29.96,NNE,22,0.0,0.0,94,0.00,CLR,,0.00,WeatherDisplay:10.37,2016-08-28 08:32:00,
2016-08-28 03:37:00,73.9,72.1,29.96,North,360,0.0,0.0,94,0.00,CLR,,0.00,WeatherDisplay:10.37,2016-08-28 08:37:00,
2016-08-28 03:42:00,73.9,72.1,29.96,North,360,1.4,1.4,94,0.00,CLR,,0.00,WeatherDisplay:10.37,2016-08-28 08:42:00,
2016-08-28 03:47:00,73.9,72.1,29.96,NW,315,2.3,2.3,94,0.00,CLR,,0.00,WeatherDisplay:10.37,2016-08-28 08:47:00,
2016-08-28 03:52:00,73.9,72.1,29.95,West,270,2.3,2.3,94,0.00,CLR,,0.00,WeatherDisplay:10.37,2016-08-28 08:52:00,
2016-08-28 03:57:00,73.9,72.1,29.95,WSW,248,0.0,0.0,94,0.00,CLR,,0.00,WeatherDisplay:10.37,2016-08-28 08:57:00,
2016-08-28 04:02:00,73.9,72.1,29.95,NNE,22,3.5,3.5,94,0.00,CLR,,0.00,WeatherDisplay:10.37,2016-08-28 09:02:00,
2016-08-28 04:07:00,73.9,72.1,29.95,NNE,22,3.5,3.5,94,0.00,CLR,,0.00,WeatherDisplay:10.37,2016-08-28 09:07:00,
2016-08-28 04:12:00,73.9,72.1,29.95,NE,45,2.3,2.3,94,0.00,CLR,,0.00,WeatherDisplay:10.37,2016-08-28 09:12:00,
2016-08-28 04:17:00,74.1,72.3,29.95,NNE,22,3.5,3.5,94,0.00,CLR,,0.00,WeatherDisplay:10.37,2016-08-28 09:17:00,
2016-08-28 04:22:00,74.1,72.3,29.95,WNW,292,2.3,2.4,94,0.00,CLR,,0.00,WeatherDisplay:10.37,2016-08-28 09:22:00,
2016-08-28 04:27:00,74.1,72.3,29.95,NNE,22,2.7,2.7,94,0.00,CLR,,0.00,WeatherDisplay:10.37,2016-08-28 09:27:00,
2016-08-28 04:32:00,74.1,72.3,29.95,NNE,22,2.3,2.3,94,0.00,CLR,,0.00,WeatherDisplay:10.37,2016-08-28 09:32:00,
2016-08-28 04:37:00,74.1,72.3,29.96,NNE,22,0.0,0.0,94,0.00,CLR,,0.00,WeatherDisplay:10.37,2016-08-28 09:37:00,
2016-08-28 04:42:00,74.1,72.3,29.96,NE,45,1.2,1.2,94,0.00,CLR,,0.00,WeatherDisplay:10.37,2016-08-28 09:42:00,
2016-08-28 04:47:00,74.1,72.3,29.96,ENE,68,2.3,2.3,94,0.00,CLR,,0.00,WeatherDisplay:10.37,2016-08-28 09:47:00,
2016-08-28 04:52:00,74.1,72.3,29.96,NE,45,0.0,0.0,94,0.00,CLR,,0.00,WeatherDisplay:10.37,2016-08-28 09:52:00,
2016-08-28 04:57:00,74.1,72.3,29.96,NE,45,2.7,2.7,94,0.00,CLR,,0.00,WeatherDisplay:10.37,2016-08-28 09:57:00,
2016-08-28 05:02:00,74.3,72.5,29.96,ESE,112,2.3,2.3,94,0.00,CLR,,0.00,WeatherDisplay:10.37,2016-08-28 10:02:00,
2016-08-28 05:07:00,74.3,72.5,29.96,NE,45,2.3,2.3,94,0.00,CLR,,0.00,WeatherDisplay:10.37,2016-08-28 10:07:00,
2016-08-28 05:12:00,74.3,72.5,29.96,NNE,22,0.0,0.0,94,0.00,CLR,,0.00,WeatherDisplay:10.37,2016-08-28 10:12:00,
2016-08-28 05:17:00,74.3,72.5,29.96,NE,45,3.5,3.5,94,0.00,CLR,,0.00,WeatherDisplay:10.37,2016-08-28 10:17:00,
2016-08-28 05:22:00,74.3,72.5,29.96,NE,45,0.0,0.0,94,0.00,CLR,,0.00,WeatherDisplay:10.37,2016-08-28 10:22:00,
2016-08-28 05:27:00,74.5,72.7,29.98,NNE,22,1.2,0.0,94,0.00,CLR,,0.00,WeatherDisplay:10.37,2016-08-28 10:27:00,
2016-08-28 05:32:00,74.5,72.7,29.98,East,90,2.7,2.7,94,0.00,CLR,,0.00,WeatherDisplay:10.37,2016-08-28 10:32:00,
2016-08-28 05:37:00,74.5,72.7,29.97,North,360,4.0,4.0,94,0.00,CLR,,0.00,WeatherDisplay:10.37,2016-08-28 10:37:00,
2016-08-28 05:42:00,74.5,72.7,29.97,ENE,68,2.7,2.7,94,0.00,CLR,,0.00,WeatherDisplay:10.37,2016-08-28 10:42:00,
2016-08-28 05:47:00,74.5,72.7,29.97,NE,45,2.7,2.7,94,0.00,CLR,,0.00,WeatherDisplay:10.37,2016-08-28 10:47:00,
2016-08-28 05:52:00,74.5,72.7,29.98,NE,45,3.5,3.5,94,0.00,CLR,,0.00,WeatherDisplay:10.37,2016-08-28 10:52:00,
2016-08-28 05:57:00,74.5,72.7,29.98,NE,45,2.7,2.7,94,0.00,CLR,,0.00,WeatherDisplay:10.37,2016-08-28 10:57:00,
2016-08-28 06:02:00,74.5,72.7,29.98,NE,45,3.5,3.5,94,0.00,CLR,,0.00,WeatherDisplay:10.37,2016-08-28 11:02:00,
2016-08-28 06:07:00,74.5,72.7,29.98,NNE,22,2.3,0.0,94,0.00,CLR,,0.00,WeatherDisplay:10.37,2016-08-28 11:07:00,
2016-08-28 06:12:00,74.5,72.7,29.98,North,360,3.5,3.5,94,0.00,CLR,,0.00,WeatherDisplay:10.37,2016-08-28 11:12:00,
2016-08-28 06:17:00,74.5,72.7,29.98,NE,45,3.5,3.5,94,0.00,CLR,,0.00,WeatherDisplay:10.37,2016-08-28 11:17:00,
2016-08-28 06:22:00,74.5,72.7,29.98,ESE,112,2.3,2.3,94,0.00,CLR,,0.00,WeatherDisplay:10.37,2016-08-28 11:22:00,
2016-08-28 06:27:00,74.5,72.7,29.98,NNE,22,3.5,3.5,94,0.00,CLR,,0.00,WeatherDisplay:10.37,2016-08-28 11:27:00,
2016-08-28 06:32:00,74.5,72.7,29.98,NNE,22,2.3,2.3,94,0.00,CLR,,0.00,WeatherDisplay:10.37,2016-08-28 11:32:00,
2016-08-28 06:37:00,74.5,72.7,29.99,NNE,22,3.5,3.5,94,0.00,CLR,,0.00,WeatherDisplay:10.37,2016-08-28 11:37:00,
2016-08-28 06:42:00,74.5,72.7,29.99,NNE,22,3.5,3.5,94,0.00,CLR,,0.00,WeatherDisplay:10.37,2016-08-28 11:42:00,
2016-08-28 06:47:00,74.5,72.7,29.99,NNE,22,2.3,2.4,94,0.00,CLR,,0.00,WeatherDisplay:10.37,2016-08-28 11:47:00,
2016-08-28 06:52:00,74.7,72.9,29.99,NE,45,2.3,2.3,94,0.00,CLR,,0.00,WeatherDisplay:10.37,2016-08-28 11:52:00,
2016-08-28 06:57:00,74.7,72.9,29.99,NE,45,2.3,2.3,94,0.00,CLR,,0.00,WeatherDisplay:10.37,2016-08-28 11:57:00,
2016-08-28 07:02:00,74.8,73.0,29.99,NE,45,2.7,2.7,94,0.00,CLR,,0.00,WeatherDisplay:10.37,2016-08-28 12:02:00,
2016-08-28 07:07:00,75.4,73.2,29.99,ENE,68,2.7,2.7,93,0.00,CLR,,0.00,WeatherDisplay:10.37,2016-08-28 12:07:00,
2016-08-28 07:12:00,75.6,73.4,29.99,NNE,22,2.7,2.7,93,0.00,CLR,,0.00,WeatherDisplay:10.37,2016-08-28 12:12:00,
2016-08-28 07:17:00,75.9,73.7,29.99,NNE,22,2.7,2.7,93,0.00,CLR,,0.00,WeatherDisplay:10.37,2016-08-28 12:17:00,
2016-08-28 07:22:00,75.9,73.4,29.99,NE,45,2.7,2.7,92,0.00,CLR,,0.00,WeatherDisplay:10.37,2016-08-28 12:22:00,
2016-08-28 07:27:00,76.1,73.6,30.00,NE,45,4.0,4.0,92,0.00,CLR,,0.00,WeatherDisplay:10.37,2016-08-28 12:27:00,
2016-08-28 07:32:00,76.3,73.8,30.00,ENE,68,4.6,4.6,92,0.00,CLR,,0.00,WeatherDisplay:10.37,2016-08-28 12:32:00,
2016-08-28 07:37:00,76.5,74.0,30.00,NE,45,5.8,5.8,92,0.00,CLR,,0.00,WeatherDisplay:10.37,2016-08-28 12:37:00,